Location: Newark
(49.8348°N, 24.0280°E)
Time: 07:10:03
(UTC+00:00)

S-56A Canister/Altair - Pass Details

Date: 27 January 2020
Orbit: 633 x 2499 km, 38.9° (Epoch: 20 February)

Event Time Altitude Azimuth Distance (km) Brightness Sun altitude
Rises 17:35:01 0° 221° (SW) 4,430 12.0 -23.3°
Reaches altitude 10° 17:39:17 10° 206° (SSW) 3,090 10.9 -24.0°
Maximum altitude 17:44:09 19° 164° (SSE) 2,094 9.6 -24.8°
Enters shadow 17:44:29 19° 160° (SSE) 2,075 9.5 -24.9°
Drops below altitude 10° 17:48:03 10° 119° (ESE) 2,402 - -25.4°
Sets 17:50:50 0° 101° (E) 3,155 - -25.9°
